Time,TemperatureF,DewpointF,PressureIn,WindDirection,WindDirectionDegrees,WindSpeedMPH,WindSpeedGustMPH,Humidity,HourlyPrecipIn,Conditions,Clouds,dailyrainin,SoftwareType,DateUTC
2013-04-12 00:04:00,61.4,43.6,29.69,West,268,3.0,6.0,52,0.00,,---,0.00,VWS V14.01,2013-04-12 07:04:00,
2013-04-12 00:09:00,61.4,43.6,29.69,NW,314,4.0,6.0,52,0.00,,---,0.00,VWS V14.01,2013-04-12 07:09:00,
2013-04-12 00:14:00,61.4,43.6,29.69,West,276,2.0,7.0,52,0.00,,---,0.00,VWS V14.01,2013-04-12 07:14:00,
2013-04-12 00:19:00,61.4,43.6,29.69,West,267,3.0,7.0,52,0.00,,---,0.00,VWS V14.01,2013-04-12 07:19:00,
2013-04-12 00:24:00,61.5,43.7,29.69,West,271,5.0,7.0,52,0.00,,---,0.00,VWS V14.01,2013-04-12 07:24:00,
2013-04-12 00:29:00,61.4,43.6,29.69,WSW,253,7.0,7.0,52,0.00,,---,0.00,VWS V14.01,2013-04-12 07:29:00,
2013-04-12 00:34:00,61.5,43.2,29.69,West,271,5.0,7.0,51,0.00,,---,0.00,VWS V14.01,2013-04-12 07:34:00,
2013-04-12 00:39:00,61.6,43.3,29.69,West,270,6.0,7.0,51,0.00,,---,0.00,VWS V14.01,2013-04-12 07:39:00,
2013-04-12 00:44:00,61.7,43.4,29.69,West,268,1.0,8.0,51,0.00,,---,0.00,VWS V14.01,2013-04-12 07:44:00,
2013-04-12 00:49:00,61.7,42.9,29.69,WNW,296,2.0,8.0,50,0.00,,---,0.00,VWS V14.01,2013-04-12 07:49:00,
2013-04-12 00:55:00,61.6,43.3,29.69,NW,304,3.0,8.0,51,0.00,,---,0.00,VWS V14.01,2013-04-12 07:55:00,
2013-04-12 01:00:00,61.5,43.2,29.69,West,277,1.0,2.0,51,0.00,,---,0.00,VWS V14.01,2013-04-12 08:00:00,
2013-04-12 01:05:00,61.2,43.0,29.69,WNW,289,1.0,3.0,51,0.00,,---,0.00,VWS V14.01,2013-04-12 08:05:00,
2013-04-12 01:10:00,61.0,42.8,29.69,NW,304,1.0,3.0,51,0.00,,---,0.00,VWS V14.01,2013-04-12 08:10:00,
2013-04-12 01:15:00,60.7,43.0,29.69,NW,326,2.0,3.0,52,0.00,,---,0.00,VWS V14.01,2013-04-12 08:15:00,
2013-04-12 01:20:00,60.7,42.5,29.69,NW,314,1.0,3.0,51,0.00,,---,0.00,VWS V14.01,2013-04-12 08:20:00,
2013-04-12 01:25:00,60.5,42.8,29.69,WNW,299,1.0,3.0,52,0.00,,---,0.00,VWS V14.01,2013-04-12 08:25:00,
2013-04-12 01:30:00,60.4,42.2,29.69,WNW,301,1.0,3.0,51,0.00,,---,0.00,VWS V14.01,2013-04-12 08:30:00,
2013-04-12 01:36:00,60.2,42.5,29.69,WNW,296,1.0,3.0,52,0.00,,---,0.00,VWS V14.01,2013-04-12 08:36:00,
2013-04-12 01:41:00,60.2,42.0,29.69,WNW,302,0.0,3.0,51,0.00,,---,0.00,VWS V14.01,2013-04-12 08:41:00,
2013-04-12 01:46:00,60.1,41.9,29.69,WNW,301,0.0,3.0,51,0.00,,---,0.00,VWS V14.01,2013-04-12 08:46:00,
2013-04-12 01:51:00,59.9,42.2,29.69,WNW,303,0.0,3.0,52,0.00,,---,0.00,VWS V14.01,2013-04-12 08:51:00,
2013-04-12 01:57:00,59.4,41.8,29.69,ESE,108,0.0,3.0,52,0.00,,---,0.00,VWS V14.01,2013-04-12 08:57:00,
2013-04-12 02:02:00,59.0,41.9,29.69,ESE,108,0.0,0.0,53,0.00,,---,0.00,VWS V14.01,2013-04-12 09:02:00,
2013-04-12 02:07:00,58.3,41.8,29.69,ESE,120,0.0,0.0,54,0.00,,---,0.00,VWS V14.01,2013-04-12 09:07:00,
2013-04-12 02:12:00,57.9,41.8,29.69,East,93,0.0,0.0,55,0.00,,---,0.00,VWS V14.01,2013-04-12 09:12:00,
2013-04-12 02:17:00,57.6,42.0,29.69,ESE,120,0.0,0.0,56,0.00,,---,0.00,VWS V14.01,2013-04-12 09:17:00,
2013-04-12 02:22:00,57.4,41.8,29.69,SSE,152,0.0,0.0,56,0.00,,---,0.00,VWS V14.01,2013-04-12 09:22:00,
2013-04-12 02:27:00,57.0,41.9,29.69,SSE,148,0.0,0.0,57,0.00,,---,0.00,VWS V14.01,2013-04-12 09:27:00,
2013-04-12 02:33:00,56.6,42.0,29.68,SE,135,0.0,0.0,58,0.00,,---,0.00,VWS V14.01,2013-04-12 09:33:00,
2013-04-12 02:38:00,56.3,42.2,29.68,SE,145,0.0,0.0,59,0.00,,---,0.00,VWS V14.01,2013-04-12 09:38:00,
2013-04-12 02:43:00,56.1,42.0,29.69,SE,128,2.0,3.0,59,0.00,,---,0.00,VWS V14.01,2013-04-12 09:43:00,
2013-04-12 02:48:00,55.7,41.6,29.69,SE,142,0.0,4.0,59,0.00,,---,0.00,VWS V14.01,2013-04-12 09:48:00,
2013-04-12 02:53:00,55.6,42.0,29.69,ESE,113,1.0,4.0,60,0.00,,---,0.00,VWS V14.01,2013-04-12 09:53:00,
2013-04-12 02:58:00,55.9,41.8,29.69,ESE,120,2.0,4.0,59,0.00,,---,0.00,VWS V14.01,2013-04-12 09:58:00,
2013-04-12 03:03:00,55.9,41.8,29.68,SE,125,0.0,0.0,59,0.00,,---,0.00,VWS V14.01,2013-04-12 10:03:00,
2013-04-12 03:09:00,55.8,41.7,29.68,WSW,243,0.0,1.0,59,0.00,,---,0.00,VWS V14.01,2013-04-12 10:09:00,
2013-04-12 03:14:00,55.4,41.3,29.69,ESE,117,4.0,4.0,59,0.00,,---,0.00,VWS V14.01,2013-04-12 10:14:00,
2013-04-12 03:19:00,55.1,41.5,29.69,East,97,0.0,4.0,60,0.00,,---,0.00,VWS V14.01,2013-04-12 10:19:00,
2013-04-12 03:24:00,54.9,41.3,29.68,SE,128,1.0,4.0,60,0.00,,---,0.00,VWS V14.01,2013-04-12 10:24:00,
2013-04-12 03:29:00,54.9,41.7,29.69,SE,135,0.0,4.0,61,0.00,,---,0.00,VWS V14.01,2013-04-12 10:29:00,
2013-04-12 03:34:00,54.8,41.6,29.69,ESE,110,2.0,4.0,61,0.00,,---,0.00,VWS V14.01,2013-04-12 10:34:00,
2013-04-12 03:39:00,54.7,41.1,29.69,ESE,110,2.0,4.0,60,0.00,,---,0.00,VWS V14.01,2013-04-12 10:39:00,
2013-04-12 03:44:00,54.5,41.3,29.69,ESE,110,2.0,4.0,61,0.00,,---,0.00,VWS V14.01,2013-04-12 10:44:00,
2013-04-12 03:49:00,54.1,41.4,29.69,SE,138,2.0,4.0,62,0.00,,---,0.00,VWS V14.01,2013-04-12 10:49:00,
2013-04-12 03:54:00,54.7,41.5,29.69,SE,142,3.0,4.0,61,0.00,,---,0.00,VWS V14.01,2013-04-12 10:54:00,
2013-04-12 03:59:00,55.4,41.3,29.69,ESE,115,4.0,4.0,59,0.00,,---,0.00,VWS V14.01,2013-04-12 10:59:00,
2013-04-12 04:04:00,55.9,41.3,29.69,SE,138,1.0,4.0,58,0.00,,---,0.00,VWS V14.01,2013-04-12 11:04:00,
2013-04-12 04:10:00,56.3,41.3,29.69,ESE,120,2.0,4.0,57,0.00,,---,0.00,VWS V14.01,2013-04-12 11:10:00,
2013-04-12 04:15:00,56.5,41.0,29.69,SSE,150,4.0,4.0,56,0.00,,---,0.00,VWS V14.01,2013-04-12 11:15:00,
2013-04-12 04:20:00,56.6,41.1,29.68,SE,141,3.0,5.0,56,0.00,,---,0.00,VWS V14.01,2013-04-12 11:20:00,
2013-04-12 04:25:00,56.7,41.2,29.68,South,173,2.0,5.0,56,0.00,,---,0.00,VWS V14.01,2013-04-12 11:25:00,
2013-04-12 04:30:00,56.6,41.1,29.68,SSE,168,2.0,5.0,56,0.00,,---,0.00,VWS V14.01,2013-04-12 11:30:00,
2013-04-12 04:35:00,56.5,41.0,29.68,SSE,159,4.0,5.0,56,0.00,,---,0.00,VWS V14.01,2013-04-12 11:35:00,
2013-04-12 04:40:00,56.6,41.1,29.68,SE,141,3.0,5.0,56,0.00,,---,0.00,VWS V14.01,2013-04-12 11:40:00,
2013-04-12 04:45:00,56.7,40.7,29.67,SSE,159,1.0,5.0,55,0.00,,---,0.00,VWS V14.01,2013-04-12 11:45:00,
2013-04-12 04:51:00,56.8,40.8,29.67,South,179,3.0,5.0,55,0.00,,---,0.00,VWS V14.01,2013-04-12 11:51:00,
2013-04-12 04:56:00,56.9,40.9,29.67,SSE,154,1.0,5.0,55,0.00,,---,0.00,VWS V14.01,2013-04-12 11:56:00,
2013-04-12 05:01:00,56.8,40.8,29.68,SSE,148,1.0,1.0,55,0.00,,---,0.00,VWS V14.01,2013-04-12 12:01:00,
2013-04-12 05:06:00,56.8,40.8,29.68,SE,139,2.0,2.0,55,0.00,,---,0.00,VWS V14.01,2013-04-12 12:06:00,
2013-04-12 05:12:00,56.7,40.7,29.68,SSE,153,3.0,3.0,55,0.00,,---,0.00,VWS V14.01,2013-04-12 12:12:00,
2013-04-12 05:17:00,56.7,40.7,29.68,SE,146,2.0,3.0,55,0.00,,---,0.00,VWS V14.01,2013-04-12 12:17:00,
2013-04-12 05:22:00,56.5,40.5,29.68,SSE,158,2.0,3.0,55,0.00,,---,0.00,VWS V14.01,2013-04-12 12:22:00,
2013-04-12 05:27:00,56.5,40.5,29.68,SE,143,0.0,3.0,55,0.00,,---,0.00,VWS V14.01,2013-04-12 12:27:00,
2013-04-12 05:32:00,55.7,40.3,29.68,WNW,293,2.0,3.0,56,0.00,,---,0.00,VWS V14.01,2013-04-12 12:32:00,
2013-04-12 05:37:00,54.1,39.7,29.69,WNW,289,3.0,5.0,58,0.00,,---,0.00,VWS V14.01,2013-04-12 12:37:00,
2013-04-12 05:42:00,52.2,39.2,29.69,WNW,287,3.0,5.0,61,0.00,,---,0.00,VWS V14.01,2013-04-12 12:42:00,
2013-04-12 05:47:00,51.1,39.4,29.70,West,277,3.0,5.0,64,0.00,,---,0.00,VWS V14.01,2013-04-12 12:47:00,
2013-04-12 05:53:00,50.5,39.2,29.70,WNW,284,3.0,5.0,65,0.00,,---,0.00,VWS V14.01,2013-04-12 12:53:00,
2013-04-12 05:58:00,50.1,39.2,29.71,West,273,3.0,5.0,66,0.00,,---,0.00,VWS V14.01,2013-04-12 12:58:00,
2013-04-12 06:03:00,49.8,39.3,29.71,WSW,243,3.0,5.0,67,0.00,,---,0.00,VWS V14.01,2013-04-12 13:03:00,
2013-04-12 06:08:00,49.7,39.2,29.71,SW,232,1.0,5.0,67,0.00,,---,0.00,VWS V14.01,2013-04-12 13:08:00,
2013-04-12 06:13:00,49.8,39.7,29.71,WSW,240,2.0,5.0,68,0.00,,---,0.00,VWS V14.01,2013-04-12 13:13:00,
2013-04-12 06:18:00,50.0,39.9,29.71,SW,229,0.0,5.0,68,0.00,,---,0.00,VWS V14.01,2013-04-12 13:18:00,
2013-04-12 06:23:00,50.2,40.1,29.71,WSW,248,0.0,5.0,68,0.00,,---,0.00,VWS V14.01,2013-04-12 13:23:00,
2013-04-12 06:29:00,50.4,39.9,29.71,West,262,1.0,5.0,67,0.00,,---,0.00,VWS V14.01,2013-04-12 13:29:00,
2013-04-12 06:34:00,50.6,40.1,29.71,WSW,251,1.0,5.0,67,0.00,,---,0.00,VWS V14.01,2013-04-12 13:34:00,
2013-04-12 06:39:00,51.2,40.2,29.72,West,277,1.0,5.0,66,0.00,,---,0.00,VWS V14.01,2013-04-12 13:39:00,
2013-04-12 06:44:00,51.3,40.3,29.72,West,274,0.0,5.0,66,0.00,,---,0.00,VWS V14.01,2013-04-12 13:44:00,
2013-04-12 06:49:00,51.6,40.2,29.72,West,274,0.0,5.0,65,0.00,,---,0.00,VWS V14.01,2013-04-12 13:49:00,
2013-04-12 06:54:00,51.9,40.5,29.73,SW,236,2.0,5.0,65,0.00,,---,0.00,VWS V14.01,2013-04-12 13:54:00,
2013-04-12 06:59:00,52.3,40.9,29.73,SW,229,1.0,5.0,65,0.00,,---,0.00,VWS V14.01,2013-04-12 13:59:00,
2013-04-12 07:04:00,52.6,40.8,29.73,SW,233,0.0,1.0,64,0.00,,---,0.00,VWS V14.01,2013-04-12 14:04:00,
2013-04-12 07:09:00,53.0,41.2,29.74,SW,218,0.0,1.0,64,0.00,,---,0.00,VWS V14.01,2013-04-12 14:09:00,
2013-04-12 07:14:00,53.3,41.0,29.74,WSW,257,0.0,1.0,63,0.00,,---,0.00,VWS V14.01,2013-04-12 14:14:00,
2013-04-12 07:19:00,53.8,41.5,29.74,West,259,0.0,1.0,63,0.00,,---,0.00,VWS V14.01,2013-04-12 14:19:00,
2013-04-12 07:25:00,54.2,41.5,29.75,WNW,286,1.0,2.0,62,0.00,,---,0.00,VWS V14.01,2013-04-12 14:25:00,
2013-04-12 07:30:00,54.6,41.4,29.75,NW,304,0.0,2.0,61,0.00,,---,0.00,VWS V14.01,2013-04-12 14:30:00,
2013-04-12 07:35:00,55.1,41.5,29.75,WNW,301,0.0,2.0,60,0.00,,---,0.00,VWS V14.01,2013-04-12 14:35:00,
2013-04-12 07:40:00,55.7,42.0,29.75,WNW,294,0.0,2.0,60,0.00,,---,0.00,VWS V14.01,2013-04-12 14:40:00,
2013-04-12 07:45:00,57.0,42.8,29.75,WNW,294,0.0,2.0,59,0.00,,---,0.00,VWS V14.01,2013-04-12 14:45:00,
2013-04-12 07:50:00,58.7,43.1,29.75,SW,221,0.0,2.0,56,0.00,,---,0.00,VWS V14.01,2013-04-12 14:50:00,
2013-04-12 07:55:00,60.2,43.0,29.75,SSW,197,0.0,2.0,53,0.00,,---,0.00,VWS V14.01,2013-04-12 14:55:00,
2013-04-12 08:00:00,61.1,43.4,29.76,SSW,195,0.0,0.0,52,0.00,,---,0.00,VWS V14.01,2013-04-12 15:00:00,
2013-04-12 08:05:00,61.7,42.9,29.76,SE,141,2.0,2.0,50,0.00,,---,0.00,VWS V14.01,2013-04-12 15:05:00,
2013-04-12 08:10:00,61.7,43.4,29.76,East,99,2.0,2.0,51,0.00,,---,0.00,VWS V14.01,2013-04-12 15:10:00,
2013-04-12 08:15:00,62.0,42.6,29.76,ESE,115,1.0,2.0,49,0.00,,---,0.00,VWS V14.01,2013-04-12 15:15:00,
2013-04-12 08:21:00,62.1,42.7,29.76,SE,132,1.0,3.0,49,0.00,,---,0.00,VWS V14.01,2013-04-12 15:21:00,
2013-04-12 08:26:00,62.6,43.2,29.76,SSE,161,1.0,3.0,49,0.00,,---,0.00,VWS V14.01,2013-04-12 15:26:00,
2013-04-12 08:31:00,63.5,43.5,29.76,SE,127,1.0,3.0,48,0.00,,---,0.00,VWS V14.01,2013-04-12 15:31:00,
2013-04-12 08:36:00,63.8,43.2,29.76,East,94,0.0,3.0,47,0.00,,---,0.00,VWS V14.01,2013-04-12 15:36:00,
2013-04-12 08:41:00,64.2,43.0,29.76,ESE,120,1.0,3.0,46,0.00,,---,0.00,VWS V14.01,2013-04-12 15:41:00,
2013-04-12 08:46:00,64.1,42.9,29.76,East,79,2.0,4.0,46,0.00,,---,0.00,VWS V14.01,2013-04-12 15:46:00,
2013-04-12 08:51:00,64.2,43.0,29.76,NE,52,0.0,4.0,46,0.00,,---,0.00,VWS V14.01,2013-04-12 15:51:00,
2013-04-12 08:56:00,65.1,43.8,29.76,ESE,107,1.0,4.0,46,0.00,,---,0.00,VWS V14.01,2013-04-12 15:56:00,
2013-04-12 09:01:00,65.4,42.9,29.77,East,99,4.0,5.0,44,0.00,,---,0.00,VWS V14.01,2013-04-12 16:01:00,
2013-04-12 09:06:00,65.5,43.0,29.77,SSE,148,2.0,5.0,44,0.00,,---,0.00,VWS V14.01,2013-04-12 16:06:00,
2013-04-12 09:11:00,65.6,42.5,29.77,ESE,112,0.0,5.0,43,0.00,,---,0.00,VWS V14.01,2013-04-12 16:11:00,
2013-04-12 09:16:00,66.3,43.2,29.77,NE,47,0.0,5.0,43,0.00,,---,0.00,VWS V14.01,2013-04-12 16:16:00,
2013-04-12 09:21:00,67.0,43.8,29.77,East,96,0.0,5.0,43,0.00,,---,0.00,VWS V14.01,2013-04-12 16:21:00,
2013-04-12 09:26:00,68.2,43.0,29.77,SE,138,0.0,5.0,40,0.00,,---,0.00,VWS V14.01,2013-04-12 16:26:00,
2013-04-12 09:31:00,68.8,43.5,29.77,NW,324,0.0,5.0,40,0.00,,---,0.00,VWS V14.01,2013-04-12 16:31:00,
2013-04-12 09:37:00,68.5,43.2,29.78,NE,47,3.0,5.0,40,0.00,,---,0.00,VWS V14.01,2013-04-12 16:37:00,
2013-04-12 09:42:00,68.6,43.3,29.78,NE,35,2.0,5.0,40,0.00,,---,0.00,VWS V14.01,2013-04-12 16:42:00,
2013-04-12 09:47:00,68.6,43.3,29.78,NE,37,1.0,5.0,40,0.00,,---,0.00,VWS V14.01,2013-04-12 16:47:00,
2013-04-12 09:52:00,68.6,43.3,29.78,WNW,285,2.0,5.0,40,0.00,,---,0.00,VWS V14.01,2013-04-12 16:52:00,
2013-04-12 09:57:00,69.0,43.0,29.78,NW,314,5.0,7.0,39,0.00,,---,0.00,VWS V14.01,2013-04-12 16:57:00,
2013-04-12 10:02:00,69.4,43.4,29.78,West,281,1.0,4.0,39,0.00,,---,0.00,VWS V14.01,2013-04-12 17:02:00,
2013-04-12 10:07:00,69.7,43.7,29.79,NW,315,0.0,6.0,39,0.00,,---,0.00,VWS V14.01,2013-04-12 17:07:00,
2013-04-12 10:13:00,70.4,43.6,29.78,WNW,298,1.0,6.0,38,0.00,,---,0.00,VWS V14.01,2013-04-12 17:13:00,
2013-04-12 10:18:00,70.4,43.6,29.78,West,276,1.0,6.0,38,0.00,,---,0.00,VWS V14.01,2013-04-12 17:18:00,
2013-04-12 10:23:00,70.4,42.9,29.78,WNW,283,3.0,6.0,37,0.00,,---,0.00,VWS V14.01,2013-04-12 17:23:00,
2013-04-12 10:28:00,71.2,43.6,29.78,SSE,158,1.0,6.0,37,0.00,,---,0.00,VWS V14.01,2013-04-12 17:28:00,
2013-04-12 10:33:00,72.6,44.1,29.78,East,93,4.0,9.0,36,0.00,,---,0.00,VWS V14.01,2013-04-12 17:33:00,
2013-04-12 10:38:00,72.6,41.1,29.78,NE,53,4.0,9.0,32,0.00,,---,0.00,VWS V14.01,2013-04-12 17:38:00,
2013-04-12 10:45:00,72.1,41.4,29.78,NNE,30,7.0,11.0,33,0.00,,---,0.00,VWS V14.01,2013-04-12 17:45:00,
2013-04-12 10:50:00,72.0,40.6,29.78,NNW,342,1.0,11.0,32,0.00,,---,0.00,VWS V14.01,2013-04-12 17:50:00,
2013-04-12 10:57:00,73.0,41.4,29.78,NNE,29,3.0,11.0,32,0.00,,---,0.00,VWS V14.01,2013-04-12 17:57:00,
2013-04-12 11:02:00,73.1,40.7,29.78,North,355,4.0,7.0,31,0.00,,---,0.00,VWS V14.01,2013-04-12 18:02:00,
2013-04-12 11:08:00,73.9,39.7,29.78,NE,37,3.0,9.0,29,0.00,,---,0.00,VWS V14.01,2013-04-12 18:08:00,
2013-04-12 11:14:00,73.5,40.2,29.78,NNW,347,0.0,9.0,30,0.00,,---,0.00,VWS V14.01,2013-04-12 18:14:00,
2013-04-12 11:24:00,74.1,39.8,29.78,East,82,6.0,9.0,29,0.00,,---,0.00,VWS V14.01,2013-04-12 18:24:00,
2013-04-12 12:27:00,75.9,37.6,29.76,NNW,330,2.0,11.0,25,0.00,,---,0.00,VWS V14.01,2013-04-12 19:27:00,
2013-04-12 12:32:00,76.5,38.1,29.76,ENE,68,1.0,11.0,25,0.00,,---,0.00,VWS V14.01,2013-04-12 19:32:00,
2013-04-12 12:33:00,76.5,39.1,29.76,ESE,115,4.0,11.0,26,0.00,,---,0.00,VWS V14.01,2013-04-12 19:33:00,
2013-04-12 12:34:00,76.6,39.2,29.76,ESE,103,7.0,11.0,26,0.00,,---,0.00,VWS V14.01,2013-04-12 19:34:00,
2013-04-12 12:35:00,76.6,38.2,29.75,South,172,3.0,11.0,25,0.00,,---,0.00,VWS V14.01,2013-04-12 19:35:00,
2013-04-12 12:40:00,77.3,39.8,29.75,SE,145,2.0,11.0,26,0.00,,---,0.00,VWS V14.01,2013-04-12 19:40:00,
2013-04-12 12:45:00,77.3,37.7,29.75,NE,34,7.0,11.0,24,0.00,,---,0.00,VWS V14.01,2013-04-12 19:45:00,
2013-04-12 12:50:00,77.1,37.6,29.75,ENE,61,0.0,11.0,24,0.00,,---,0.00,VWS V14.01,2013-04-12 19:50:00,
2013-04-12 12:55:00,77.5,37.9,29.75,NNE,18,0.0,11.0,24,0.00,,---,0.00,VWS V14.01,2013-04-12 19:55:00,
2013-04-12 13:00:00,78.1,38.4,29.75,ESE,105,7.0,8.0,24,0.00,,---,0.00,VWS V14.01,2013-04-12 20:00:00,
2013-04-12 13:05:00,78.1,37.3,29.75,ESE,104,0.0,8.0,23,0.00,,---,0.00,VWS V14.01,2013-04-12 20:05:00,
2013-04-12 13:10:00,78.4,37.6,29.74,NE,47,6.0,8.0,23,0.00,,---,0.00,VWS V14.01,2013-04-12 20:10:00,
2013-04-12 13:15:00,77.5,36.8,29.74,ENE,59,0.0,9.0,23,0.00,,---,0.00,VWS V14.01,2013-04-12 20:15:00,
2013-04-12 13:20:00,77.9,37.2,29.74,ENE,68,2.0,9.0,23,0.00,,---,0.00,VWS V14.01,2013-04-12 20:20:00,
2013-04-12 13:25:00,79.3,37.2,29.73,ESE,116,6.0,10.0,22,0.00,,---,0.00,VWS V14.01,2013-04-12 20:25:00,
2013-04-12 13:30:00,79.6,37.5,29.73,East,101,1.0,10.0,22,0.00,,---,0.00,VWS V14.01,2013-04-12 20:30:00,
2013-04-12 13:35:00,80.1,36.7,29.73,East,91,1.0,10.0,21,0.00,,---,0.00,VWS V14.01,2013-04-12 20:35:00,
2013-04-12 13:41:00,79.8,36.4,29.73,NNE,30,8.0,10.0,21,0.00,,---,0.00,VWS V14.01,2013-04-12 20:41:00,
2013-04-12 13:46:00,80.3,35.6,29.72,ENE,65,5.0,13.0,20,0.00,,---,0.00,VWS V14.01,2013-04-12 20:46:00,
2013-04-12 13:51:00,80.3,35.6,29.72,East,96,4.0,13.0,20,0.00,,---,0.00,VWS V14.01,2013-04-12 20:51:00,
2013-04-12 13:56:00,80.2,35.5,29.72,ESE,105,2.0,13.0,20,0.00,,---,0.00,VWS V14.01,2013-04-12 20:56:00,
2013-04-12 14:01:00,79.7,35.1,29.72,North,355,1.0,6.0,20,0.00,,---,0.00,VWS V14.01,2013-04-12 21:01:00,
2013-04-12 14:06:00,79.6,35.0,29.72,ENE,60,2.0,9.0,20,0.00,,---,0.00,VWS V14.01,2013-04-12 21:06:00,
2013-04-12 14:11:00,79.4,33.6,29.72,NNE,21,5.0,10.0,19,0.00,,---,0.00,VWS V14.01,2013-04-12 21:11:00,
2013-04-12 14:17:00,79.9,34.0,29.71,North,358,1.0,10.0,19,0.00,,---,0.00,VWS V14.01,2013-04-12 21:17:00,
2013-04-12 14:22:00,80.2,34.2,29.71,WSW,243,0.0,10.0,19,0.00,,---,0.00,VWS V14.01,2013-04-12 21:22:00,
2013-04-12 14:27:00,80.8,32.0,29.71,WNW,290,4.0,10.0,17,0.00,,---,0.00,VWS V14.01,2013-04-12 21:27:00,
2013-04-12 14:32:00,80.7,33.3,29.71,NW,324,2.0,10.0,18,0.00,,---,0.00,VWS V14.01,2013-04-12 21:32:00,
2013-04-12 14:37:00,80.7,34.7,29.70,NNE,14,4.0,10.0,19,0.00,,---,0.00,VWS V14.01,2013-04-12 21:37:00,
2013-04-12 14:42:00,80.9,34.8,29.70,NE,46,2.0,10.0,19,0.00,,---,0.00,VWS V14.01,2013-04-12 21:42:00,
2013-04-12 14:47:00,81.9,34.3,29.70,ENE,75,5.0,10.0,18,0.00,,---,0.00,VWS V14.01,2013-04-12 21:47:00,
2013-04-12 14:52:00,81.3,32.4,29.70,NNW,347,4.0,10.0,17,0.00,,---,0.00,VWS V14.01,2013-04-12 21:52:00,
2013-04-12 14:57:00,81.1,33.6,29.70,North,357,2.0,10.0,18,0.00,,---,0.00,VWS V14.01,2013-04-12 21:57:00,
2013-04-12 15:02:00,81.3,30.9,29.69,West,277,2.0,8.0,16,0.00,,---,0.00,VWS V14.01,2013-04-12 22:02:00,
2013-04-12 15:07:00,81.5,31.0,29.69,NW,307,4.0,8.0,16,0.00,,---,0.00,VWS V14.01,2013-04-12 22:07:00,
2013-04-12 15:12:00,81.6,29.5,29.69,NNW,331,0.0,8.0,15,0.00,,---,0.00,VWS V14.01,2013-04-12 22:12:00,
2013-04-12 15:17:00,81.7,29.6,29.69,NW,311,5.0,8.0,15,0.00,,---,0.00,VWS V14.01,2013-04-12 22:17:00,
2013-04-12 15:22:00,81.7,29.6,29.69,North,359,5.0,8.0,15,0.00,,---,0.00,VWS V14.01,2013-04-12 22:22:00,
2013-04-12 15:27:00,81.9,29.8,29.68,North,355,5.0,9.0,15,0.00,,---,0.00,VWS V14.01,2013-04-12 22:27:00,
2013-04-12 15:32:00,81.8,28.0,29.68,WNW,285,4.0,11.0,14,0.00,,---,0.00,VWS V14.01,2013-04-12 22:32:00,
2013-04-12 15:37:00,81.9,28.1,29.68,WNW,284,6.0,11.0,14,0.00,,---,0.00,VWS V14.01,2013-04-12 22:37:00,
2013-04-12 15:42:00,81.9,29.8,29.68,NE,44,1.0,11.0,15,0.00,,---,0.00,VWS V14.01,2013-04-12 22:42:00,
2013-04-12 15:47:00,82.1,29.9,29.67,NW,311,0.0,11.0,15,0.00,,---,0.00,VWS V14.01,2013-04-12 22:47:00,
2013-04-12 15:52:00,82.7,30.4,29.67,West,274,0.0,11.0,15,0.00,,---,0.00,VWS V14.01,2013-04-12 22:52:00,
2013-04-12 15:58:00,82.6,30.3,29.67,NNW,342,1.0,11.0,15,0.00,,---,0.00,VWS V14.01,2013-04-12 22:58:00,
2013-04-12 16:03:00,82.4,30.2,29.67,NNE,22,6.0,9.0,15,0.00,,---,0.00,VWS V14.01,2013-04-12 23:03:00,
2013-04-12 16:08:00,82.1,29.9,29.67,East,98,4.0,9.0,15,0.00,,---,0.00,VWS V14.01,2013-04-12 23:08:00,
2013-04-12 16:13:00,82.7,30.4,29.66,North,354,4.0,9.0,15,0.00,,---,0.00,VWS V14.01,2013-04-12 23:13:00,
2013-04-12 16:18:00,82.5,30.2,29.66,NW,315,3.0,10.0,15,0.00,,---,0.00,VWS V14.01,2013-04-12 23:18:00,
2013-04-12 16:23:00,82.4,30.2,29.66,WNW,291,0.0,10.0,15,0.00,,---,0.00,VWS V14.01,2013-04-12 23:23:00,
2013-04-12 16:28:00,82.4,30.2,29.66,West,280,1.0,10.0,15,0.00,,---,0.00,VWS V14.01,2013-04-12 23:28:00,
2013-04-12 16:33:00,82.7,32.0,29.66,NW,306,4.0,10.0,16,0.00,,---,0.00,VWS V14.01,2013-04-12 23:33:00,
2013-04-12 16:38:00,82.7,30.4,29.66,West,281,5.0,10.0,15,0.00,,---,0.00,VWS V14.01,2013-04-12 23:38:00,
2013-04-12 16:43:00,82.5,30.2,29.66,NW,308,3.0,10.0,15,0.00,,---,0.00,VWS V14.01,2013-04-12 23:43:00,
2013-04-12 16:48:00,82.7,41.2,29.66,SW,222,7.0,13.0,23,0.00,,---,0.00,VWS V14.01,2013-04-12 23:48:00,
2013-04-12 16:53:00,82.2,41.8,29.66,SSW,204,9.0,14.0,24,0.00,,---,0.00,VWS V14.01,2013-04-12 23:53:00,
2013-04-12 16:58:00,82.0,42.8,29.66,SSW,193,8.0,16.0,25,0.00,,---,0.00,VWS V14.01,2013-04-12 23:58:00,
2013-04-12 17:03:00,81.5,41.3,29.66,SW,218,13.0,19.0,24,0.00,,---,0.00,VWS V14.01,2013-04-13 00:03:00,
2013-04-12 17:08:00,81.4,42.2,29.66,SSW,203,11.0,19.0,25,0.00,,---,0.00,VWS V14.01,2013-04-13 00:08:00,
2013-04-12 17:13:00,81.5,42.3,29.66,WSW,238,7.0,19.0,25,0.00,,---,0.00,VWS V14.01,2013-04-13 00:13:00,
2013-04-12 17:18:00,81.1,42.0,29.66,SSW,207,19.0,19.0,25,0.00,,---,0.00,VWS V14.01,2013-04-13 00:18:00,
2013-04-12 17:24:00,80.2,40.2,29.66,SW,229,10.0,19.0,24,0.00,,---,0.00,VWS V14.01,2013-04-13 00:24:00,
2013-04-12 17:29:00,79.5,41.7,29.67,South,184,9.0,19.0,26,0.00,,---,0.00,VWS V14.01,2013-04-13 00:29:00,
2013-04-12 17:34:00,79.0,40.2,29.67,SW,228,19.0,21.0,25,0.00,,---,0.00,VWS V14.01,2013-04-13 00:34:00,
2013-04-12 17:39:00,79.3,39.4,29.66,SSW,210,11.0,21.0,24,0.00,,---,0.00,VWS V14.01,2013-04-13 00:39:00,
2013-04-12 17:44:00,79.4,38.4,29.66,SW,228,10.0,21.0,23,0.00,,---,0.00,VWS V14.01,2013-04-13 00:44:00,
2013-04-12 17:49:00,79.5,37.4,29.66,SW,219,7.0,21.0,22,0.00,,---,0.00,VWS V14.01,2013-04-13 00:49:00,
2013-04-12 17:54:00,79.4,37.3,29.66,SW,230,9.0,21.0,22,0.00,,---,0.00,VWS V14.01,2013-04-13 00:54:00,
2013-04-12 17:59:00,79.0,39.2,29.66,SW,219,15.0,21.0,24,0.00,,---,0.00,VWS V14.01,2013-04-13 00:59:00,
2013-04-12 18:04:00,78.6,38.8,29.67,SW,224,11.0,24.0,24,0.00,,---,0.00,VWS V14.01,2013-04-13 01:04:00,
2013-04-12 18:09:00,78.5,39.8,29.67,SW,217,16.0,24.0,25,0.00,,---,0.00,VWS V14.01,2013-04-13 01:09:00,
2013-04-12 18:14:00,78.0,39.4,29.67,SW,224,17.0,24.0,25,0.00,,---,0.00,VWS V14.01,2013-04-13 01:14:00,
2013-04-12 18:19:00,77.7,40.1,29.67,SW,214,14.0,24.0,26,0.00,,---,0.00,VWS V14.01,2013-04-13 01:19:00,
2013-04-12 18:24:00,77.6,41.0,29.67,SW,215,8.0,24.0,27,0.00,,---,0.00,VWS V14.01,2013-04-13 01:24:00,
2013-04-12 18:29:00,77.5,40.0,29.67,SW,225,19.0,24.0,26,0.00,,---,0.00,VWS V14.01,2013-04-13 01:29:00,
2013-04-12 18:35:00,77.3,39.8,29.68,WSW,250,11.0,24.0,26,0.00,,---,0.00,VWS V14.01,2013-04-13 01:35:00,
2013-04-12 18:40:00,77.0,40.5,29.68,WSW,238,11.0,24.0,27,0.00,,---,0.00,VWS V14.01,2013-04-13 01:40:00,
2013-04-12 18:45:00,76.7,40.2,29.68,SW,222,10.0,24.0,27,0.00,,---,0.00,VWS V14.01,2013-04-13 01:45:00,
2013-04-12 18:50:00,76.3,41.7,29.68,SW,232,16.0,24.0,29,0.00,,---,0.00,VWS V14.01,2013-04-13 01:50:00,
2013-04-12 18:55:00,75.9,42.3,29.68,SW,225,9.0,24.0,30,0.00,,---,0.00,VWS V14.01,2013-04-13 01:55:00,
2013-04-12 19:00:00,75.4,42.7,29.68,SW,230,10.0,15.0,31,0.00,,---,0.00,VWS V14.01,2013-04-13 02:00:00,
2013-04-12 19:05:00,74.9,43.1,29.68,SW,230,11.0,16.0,32,0.00,,---,0.00,VWS V14.01,2013-04-13 02:05:00,
2013-04-12 19:10:00,74.4,43.5,29.68,SSE,162,7.0,16.0,33,0.00,,---,0.00,VWS V14.01,2013-04-13 02:10:00,
2013-04-12 19:15:00,73.9,44.5,29.68,SSW,198,4.0,16.0,35,0.00,,---,0.00,VWS V14.01,2013-04-13 02:15:00,
2013-04-12 19:20:00,73.5,44.2,29.69,WSW,253,7.0,16.0,35,0.00,,---,0.00,VWS V14.01,2013-04-13 02:20:00,
2013-04-12 19:25:00,73.1,43.1,29.68,SW,224,7.0,16.0,34,0.00,,---,0.00,VWS V14.01,2013-04-13 02:25:00,
2013-04-12 19:30:00,72.8,42.8,29.68,WNW,284,6.0,16.0,34,0.00,,---,0.00,VWS V14.01,2013-04-13 02:30:00,
2013-04-12 19:36:00,72.4,44.0,29.69,SW,224,9.0,16.0,36,0.00,,---,0.00,VWS V14.01,2013-04-13 02:36:00,
2013-04-12 19:42:00,72.1,44.4,29.69,SW,224,8.0,16.0,37,0.00,,---,0.00,VWS V14.01,2013-04-13 02:42:00,
2013-04-12 19:47:00,71.7,45.5,29.69,SSW,210,5.0,16.0,39,0.00,,---,0.00,VWS V14.01,2013-04-13 02:47:00,
2013-04-12 19:52:00,71.5,45.9,29.70,SW,233,14.0,16.0,40,0.00,,---,0.00,VWS V14.01,2013-04-13 02:52:00,
2013-04-12 19:57:00,71.3,44.4,29.70,SW,222,14.0,16.0,38,0.00,,---,0.00,VWS V14.01,2013-04-13 02:57:00,
2013-04-12 20:02:00,71.2,42.9,29.70,SSW,207,14.0,18.0,36,0.00,,---,0.00,VWS V14.01,2013-04-13 03:02:00,
2013-04-12 20:07:00,71.3,42.3,29.70,SSW,207,5.0,19.0,35,0.00,,---,0.00,VWS V14.01,2013-04-13 03:07:00,
2013-04-12 20:12:00,71.2,41.4,29.71,West,276,6.0,19.0,34,0.00,,---,0.00,VWS V14.01,2013-04-13 03:12:00,
2013-04-12 20:18:00,71.1,41.3,29.71,SW,221,15.0,19.0,34,0.00,,---,0.00,VWS V14.01,2013-04-13 03:18:00,
2013-04-12 20:23:00,71.0,40.5,29.71,SW,221,7.0,19.0,33,0.00,,---,0.00,VWS V14.01,2013-04-13 03:23:00,
2013-04-12 20:28:00,70.8,41.1,29.71,WSW,250,5.0,19.0,34,0.00,,---,0.00,VWS V14.01,2013-04-13 03:28:00,
2013-04-12 20:33:00,70.6,40.1,29.71,SW,219,12.0,19.0,33,0.00,,---,0.00,VWS V14.01,2013-04-13 03:33:00,
2013-04-12 20:38:00,70.5,40.0,29.72,SW,217,9.0,19.0,33,0.00,,---,0.00,VWS V14.01,2013-04-13 03:38:00,
2013-04-12 20:43:00,70.3,40.6,29.72,West,274,7.0,19.0,34,0.00,,---,0.00,VWS V14.01,2013-04-13 03:43:00,
2013-04-12 20:48:00,70.2,40.5,29.72,SSW,210,7.0,19.0,34,0.00,,---,0.00,VWS V14.01,2013-04-13 03:48:00,
2013-04-12 20:53:00,70.1,41.2,29.72,SW,233,7.0,19.0,35,0.00,,---,0.00,VWS V14.01,2013-04-13 03:53:00,
2013-04-12 20:59:00,69.9,41.0,29.73,SW,236,4.0,19.0,35,0.00,,---,0.00,VWS V14.01,2013-04-13 03:59:00,
2013-04-12 21:01:00,69.9,41.8,29.73,WNW,299,3.0,13.0,36,0.00,,---,0.00,VWS V14.01,2013-04-13 04:01:00,
2013-04-12 21:02:00,69.8,41.7,29.73,SSW,205,10.0,13.0,36,0.00,,---,0.00,VWS V14.01,2013-04-13 04:02:00,
2013-04-12 21:04:00,69.7,41.6,29.73,SW,217,6.0,13.0,36,0.00,,---,0.00,VWS V14.01,2013-04-13 04:04:00,
2013-04-12 21:08:00,69.6,42.2,29.73,West,276,9.0,13.0,37,0.00,,---,0.00,VWS V14.01,2013-04-13 04:08:00,
2013-04-12 21:13:00,69.4,42.0,29.73,SW,222,4.0,13.0,37,0.00,,---,0.00,VWS V14.01,2013-04-13 04:13:00,
2013-04-12 21:18:00,69.3,41.9,29.73,SW,231,7.0,13.0,37,0.00,,---,0.00,VWS V14.01,2013-04-13 04:18:00,
2013-04-12 21:23:00,69.4,41.3,29.73,SSW,203,4.0,13.0,36,0.00,,---,0.00,VWS V14.01,2013-04-13 04:23:00,
2013-04-12 21:28:00,69.4,41.3,29.74,SW,225,5.0,13.0,36,0.00,,---,0.00,VWS V14.01,2013-04-13 04:28:00,
2013-04-12 21:33:00,69.4,40.6,29.73,SSW,207,2.0,13.0,35,0.00,,---,0.00,VWS V14.01,2013-04-13 04:33:00,
2013-04-12 21:38:00,69.1,41.0,29.74,SW,222,5.0,13.0,36,0.00,,---,0.00,VWS V14.01,2013-04-13 04:38:00,
2013-04-12 21:43:00,68.9,40.9,29.74,WSW,253,3.0,13.0,36,0.00,,---,0.00,VWS V14.01,2013-04-13 04:43:00,
2013-04-12 21:48:00,68.8,40.8,29.74,SW,219,6.0,13.0,36,0.00,,---,0.00,VWS V14.01,2013-04-13 04:48:00,
2013-04-12 21:53:00,68.6,41.3,29.74,NW,310,0.0,13.0,37,0.00,,---,0.00,VWS V14.01,2013-04-13 04:53:00,
2013-04-12 21:58:00,68.4,41.1,29.74,WNW,296,4.0,13.0,37,0.00,,---,0.00,VWS V14.01,2013-04-13 04:58:00,
2013-04-12 22:03:00,68.1,42.2,29.75,WNW,298,0.0,2.0,39,0.00,,---,0.00,VWS V14.01,2013-04-13 05:03:00,
2013-04-12 22:08:00,67.6,42.4,29.74,WNW,300,1.0,2.0,40,0.00,,---,0.00,VWS V14.01,2013-04-13 05:08:00,
2013-04-12 22:14:00,66.9,42.5,29.74,NW,311,0.0,2.0,41,0.00,,---,0.00,VWS V14.01,2013-04-13 05:14:00,
2013-04-12 22:19:00,66.3,42.5,29.74,NW,317,0.0,2.0,42,0.00,,---,0.00,VWS V14.01,2013-04-13 05:19:00,
2013-04-12 22:24:00,66.5,42.1,29.74,NNW,342,2.0,4.0,41,0.00,,---,0.00,VWS V14.01,2013-04-13 05:24:00,
2013-04-12 22:29:00,66.2,42.5,29.74,NW,315,0.0,4.0,42,0.00,,---,0.00,VWS V14.01,2013-04-13 05:29:00,
2013-04-12 22:34:00,65.8,42.7,29.74,North,4,1.0,4.0,43,0.00,,---,0.00,VWS V14.01,2013-04-13 05:34:00,
2013-04-12 22:39:00,65.4,42.9,29.74,North,4,0.0,4.0,44,0.00,,---,0.00,VWS V14.01,2013-04-13 05:39:00,
2013-04-12 22:44:00,64.8,42.4,29.74,NE,48,0.0,4.0,44,0.00,,---,0.00,VWS V14.01,2013-04-13 05:44:00,
2013-04-12 22:49:00,64.5,42.7,29.74,SE,129,0.0,4.0,45,0.00,,---,0.00,VWS V14.01,2013-04-13 05:49:00,
2013-04-12 22:54:00,64.4,42.0,29.74,SE,134,0.0,4.0,44,0.00,,---,0.00,VWS V14.01,2013-04-13 05:54:00,
2013-04-12 22:59:00,64.6,42.2,29.74,East,80,0.0,4.0,44,0.00,,---,0.00,VWS V14.01,2013-04-13 05:59:00,
2013-04-12 23:04:00,65.0,40.1,29.74,NW,316,1.0,3.0,40,0.00,,---,0.00,VWS V14.01,2013-04-13 06:04:00,
2013-04-12 23:09:00,66.4,38.7,29.74,North,4,3.0,4.0,36,0.00,,---,0.00,VWS V14.01,2013-04-13 06:09:00,
2013-04-12 23:14:00,66.7,38.2,29.74,North,353,2.0,4.0,35,0.00,,---,0.00,VWS V14.01,2013-04-13 06:14:00,
2013-04-12 23:19:00,66.7,38.9,29.74,NNW,328,0.0,4.0,36,0.00,,---,0.00,VWS V14.01,2013-04-13 06:19:00,
2013-04-12 23:25:00,66.6,38.8,29.74,ENE,75,0.0,4.0,36,0.00,,---,0.00,VWS V14.01,2013-04-13 06:25:00,
2013-04-12 23:32:00,65.7,40.1,29.75,West,266,1.0,4.0,39,0.00,,---,0.00,VWS V14.01,2013-04-13 06:32:00,
2013-04-12 23:37:00,64.3,40.1,29.75,SW,231,3.0,5.0,41,0.00,,---,0.00,VWS V14.01,2013-04-13 06:37:00,
2013-04-12 23:42:00,64.8,39.9,29.75,WSW,240,3.0,5.0,40,0.00,,---,0.00,VWS V14.01,2013-04-13 06:42:00,
2013-04-12 23:48:00,66.1,39.8,29.75,West,276,4.0,8.0,38,0.00,,---,0.00,VWS V14.01,2013-04-13 06:48:00,
2013-04-12 23:53:00,66.8,39.7,29.75,WNW,285,3.0,8.0,37,0.00,,---,0.00,VWS V14.01,2013-04-13 06:53:00,
2013-04-12 23:58:00,67.1,39.3,29.75,West,260,6.0,8.0,36,0.00,,---,0.00,VWS V14.01,2013-04-13 06:58:00,